Date,TemperatureHighF,TemperatureAvgF,TemperatureLowF,DewpointHighF,DewpointAvgF,DewpointLowF,HumidityHigh,HumidityAvg,HumidityLow,PressureMaxIn,PressureMinIn,WindSpeedMaxMPH,WindSpeedAvgMPH,GustSpeedMaxMPH,PrecipitationSumIn
2013-1-1,36,28,19,36,27,16,100,97,92,30.22,30.03,12,6,16,0.00
2013-1-2,34,23,12,23,18,10,92,82,59,30.23,30.14,8,2,0,0.00
2013-1-3,39,30,21,30,24,18,92,78,55,30.39,30.21,6,1,0,0.00
2013-1-4,46,32,19,28,24,18,92,72,42,30.41,30.28,10,3,16,0.00
2013-1-5,43,36,28,34,29,21,86,74,64,30.28,30.13,16,6,22,0.00
2013-1-6,43,33,27,30,24,19,92,70,44,30.34,30.19,10,3,0,0.00
2013-1-7,50,37,27,30,25,19,79,62,39,30.31,30.08,14,8,24,0.00
2013-1-8,55,44,30,46,35,23,100,71,50,30.18,30.04,17,7,23,0.00
2013-1-9,54,49,45,46,44,37,100,84,57,30.33,30.18,16,-22,27,0.00
2013-1-10,55,49,45,54,47,37,100,91,57,30.22,29.82,20,12,30,0.00
2013-1-11,63,55,45,48,46,45,100,75,55,29.86,29.73,24,16,36,0.00
2013-1-12,59,41,25,48,34,23,100,77,43,29.98,29.80,20,8,30,0.00
2013-1-13,25,20,12,23,16,9,92,85,73,30.31,29.96,0,0,0,0.00
2013-1-14,27,18,9,21,14,5,92,82,73,30.42,30.28,0,0,0,0.00
2013-1-15,28,22,14,23,17,10,92,81,68,30.29,30.13,0,0,0,0.00
2013-1-16,39,27,14,25,18,10,92,71,48,30.15,30.07,8,1,0,0.00
2013-1-17,46,36,27,34,27,19,92,71,49,30.44,30.13,14,5,20,0.00
2013-1-18,55,41,28,34,28,25,86,63,34,30.44,30.16,20,11,28,0.00
2013-1-19,61,49,43,39,34,28,75,57,41,30.19,30.06,16,9,27,0.00
2013-1-20,57,42,27,36,28,18,75,58,37,30.26,30.14,17,8,24,0.00
2013-1-21,34,26,19,16,13,10,67,56,43,30.35,30.25,13,7,16,0.00
2013-1-22,43,29,19,25,17,10,73,62,48,30.29,30.18,10,3,17,0.00
2013-1-23,57,40,25,45,32,19,81,72,61,30.25,30.14,13,3,18,0.00
2013-1-24,39,34,30,28,19,12,64,54,46,30.30,30.10,17,12,24,0.00
2013-1-25,46,36,30,30,27,18,92,69,48,30.23,30.09,8,2,0,0.00
2013-1-26,59,47,36,28,25,21,69,44,26,30.24,30.11,16,8,25,0.00
2013-1-27,61,53,45,57,48,21,93,84,34,30.12,29.90,28,16,41,0.00
2013-1-28,72,66,61,64,62,57,93,85,68,29.96,29.81,27,19,40,0.00
2013-1-29,70,59,43,63,57,43,100,91,72,29.82,29.49,33,0,44,0.00
2013-1-30,43,31,25,43,27,18,100,84,68,30.01,29.49,20,10,29,0.00
2013-1-31,39,28,16,27,20,7,86,70,60,30.38,29.98,20,8,25,0.00
2013-2-1,39,23,10,19,11,3,78,59,40,30.40,30.14,10,4,0,0.00
2013-2-2,52,39,27,36,27,16,75,62,49,30.22,30.12,12,4,16,0.00
2013-2-3,52,43,34,30,27,21,74,54,32,30.26,29.96,14,7,22,0.00
2013-2-4,61,50,37,45,36,27,87,60,41,29.96,29.84,17,9,25,0.00
2013-2-5,61,47,34,45,34,30,93,64,38,30.06,29.91,12,3,17,0.00
2013-2-6,64,53,41,43,36,30,70,54,44,30.08,29.94,16,10,28,0.00
2013-2-7,54,50,41,52,48,39,100,91,66,30.10,29.87,16,8,23,0.00
2013-2-8,46,38,30,39,32,28,93,79,61,30.27,30.09,17,8,22,0.00
2013-2-9,46,40,32,43,32,28,100,77,49,30.18,29.79,20,11,32,0.00
2013-2-10,57,51,39,54,40,27,100,71,37,30.03,29.63,24,16,39,0.00
2013-2-11,50,39,30,28,27,25,80,62,39,30.18,30.02,8,1,0,0.00
2013-2-12,43,36,32,36,30,25,100,77,60,30.13,29.92,9,6,0,0.00
2013-2-13,48,37,30,39,34,30,100,88,65,29.99,29.91,13,-80,18,0.00
2013-2-14,54,43,34,36,32,25,80,64,46,30.15,29.92,10,4,15,0.00
2013-2-15,43,33,27,30,21,12,92,61,40,30.32,30.15,13,6,20,0.00
2013-2-16,36,31,25,27,20,14,92,67,47,30.29,30.08,10,6,15,0.00
2013-2-17,63,47,30,34,26,16,59,45,31,30.08,29.80,23,11,40,0.00
2013-2-18,57,49,32,54,40,25,100,71,43,30.10,29.61,30,18,43,0.00
2013-2-19,43,32,25,25,19,14,79,58,38,30.29,30.10,13,-137,18,0.00
2013-2-20,34,30,27,28,18,12,86,60,50,30.27,30.04,15,8,21,0.00
2013-2-21,34,30,28,34,28,19,100,92,63,30.05,29.66,18,4,30,0.00
2013-2-22,34,26,19,34,22,18,100,83,74,30.08,29.83,0,0,0,0.00
2013-2-23,41,29,19,27,22,16,92,76,52,30.07,29.94,5,1,0,0.00
2013-2-24,57,43,28,37,32,23,86,66,41,29.98,29.82,14,7,22,0.00
2013-2-25,39,37,32,36,33,30,100,85,69,29.88,29.46,22,14,31,0.00
2013-2-26,34,33,30,30,30,30,100,91,86,29.86,29.39,12,6,20,0.00
2013-2-27,36,32,30,30,28,27,92,84,74,30.05,29.81,15,9,18,0.00
2013-2-28,34,31,28,28,27,25,92,84,74,30.17,30.04,12,7,16,0.00
2013-3-1,30,28,27,27,23,21,92,81,74,30.23,30.13,12,6,16,0.00
2013-3-2,36,28,25,23,20,19,86,73,51,30.29,30.16,12,5,0,0.00
2013-3-3,57,41,25,37,28,19,79,60,43,30.16,29.76,17,10,25,0.00
2013-3-4,64,53,43,46,40,32,71,60,48,29.85,29.62,21,10,28,0.00
2013-3-5,43,37,30,34,26,19,100,67,45,30.28,29.85,18,12,28,0.00
2013-3-6,45,33,21,27,22,16,85,65,48,30.37,30.22,15,4,16,0.00
2013-3-7,63,48,36,30,27,25,69,48,23,30.23,30.12,17,8,23,0.00
2013-3-8,63,53,43,41,35,30,71,52,38,30.21,30.03,20,12,30,0.00
2013-3-9,66,58,48,57,47,37,100,70,52,30.04,29.70,24,14,33,0.00
2013-3-10,54,43,30,54,43,27,100,97,87,29.93,29.65,20,10,29,0.00
2013-3-11,43,33,27,28,24,21,100,73,41,30.01,29.89,14,-6,23,0.00
2013-3-12,52,40,28,36,28,21,80,61,43,30.30,29.99,13,5,17,0.00
2013-3-13,50,38,25,27,23,19,86,57,34,30.44,30.30,9,-55,0,0.00
2013-3-14,70,53,37,45,34,21,62,48,35,30.33,30.10,23,10,30,0.00
2013-3-15,77,64,48,52,47,43,81,56,33,30.11,29.79,21,10,29,0.00
2013-3-16,66,58,45,52,46,37,76,65,51,29.89,29.77,18,12,27,0.00
2013-3-17,45,40,37,41,38,36,100,95,75,29.90,29.69,18,11,27,0.00
2013-3-18,54,44,37,43,37,27,100,78,34,30.04,29.69,13,6,22,0.00
2013-3-19,52,42,34,30,25,18,74,52,27,30.24,30.03,15,6,22,0.00
2013-3-20,45,36,30,32,23,16,92,61,30,30.34,30.10,16,-128,23,0.00
2013-3-21,39,34,30,30,20,12,92,60,32,30.10,29.81,15,11,24,0.00
2013-3-22,37,35,32,37,34,30,100,93,86,29.92,29.82,12,6,16,0.00
2013-3-23,39,37,36,39,37,34,100,99,93,29.92,29.72,13,8,17,0.00
2013-3-24,37,31,25,37,29,19,100,92,73,30.09,29.65,16,9,25,0.00
2013-3-25,34,27,21,25,20,16,85,75,59,30.29,30.07,15,8,22,0.00
2013-3-26,43,32,21,27,22,19,92,70,45,30.39,30.27,12,1,0,0.00
2013-3-27,57,43,30,28,25,19,74,49,28,30.28,30.14,16,7,24,0.00
2013-3-28,66,57,46,50,40,28,67,54,46,30.20,30.11,14,8,20,0.00
2013-3-29,68,58,52,55,52,48,100,79,59,30.19,30.10,10,5,0,0.00
2013-3-30,68,58,54,57,53,-100,100,86,68,30.11,29.89,13,5,20,0.00
2013-3-31,64,56,46,54,47,37,100,75,36,29.99,29.87,16,-171,23,0.00
2013-4-1,54,46,39,43,38,30,86,74,61,30.19,29.97,16,-237,23,0.00
2013-4-2,39,37,36,36,33,28,93,86,64,30.25,30.18,12,8,18,0.00
2013-4-3,52,43,36,34,29,25,93,60,40,30.24,30.15,14,8,21,0.00
2013-4-4,55,47,39,37,34,30,86,61,40,30.15,30.07,9,2,0,0.00
2013-4-5,68,53,37,45,37,30,86,56,32,30.19,29.98,10,3,0,0.00
2013-4-6,72,61,54,54,46,36,72,57,44,29.98,29.81,25,14,43,0.00
2013-4-7,73,64,54,61,56,48,100,75,56,29.93,29.76,21,9,32,0.00
2013-4-8,72,65,59,64,60,55,100,83,73,29.81,29.74,22,12,37,0.00
2013-4-9,75,70,64,66,62,57,88,75,60,29.79,29.72,18,12,30,0.00
2013-4-10,72,46,36,63,44,36,100,97,73,29.91,29.74,21,7,25,0.00
2013-4-11,48,39,34,36,33,30,100,80,57,29.88,29.76,14,8,21,0.00
2013-4-12,54,43,34,37,33,28,86,70,50,30.03,29.79,12,3,17,0.00
2013-4-13,68,53,39,48,41,34,86,65,45,30.05,29.79,16,5,22,0.00
2013-4-14,75,66,55,59,50,45,93,58,40,29.80,29.56,25,13,37,0.00
2013-4-15,75,60,50,66,53,39,100,78,61,29.88,29.70,18,9,23,0.00
2013-4-16,61,52,48,57,50,46,100,95,82,30.01,29.87,16,11,23,0.00
2013-4-17,79,68,48,72,64,48,100,87,65,29.97,29.63,24,12,32,0.00
2013-4-18,73,48,37,68,45,28,100,89,69,29.99,29.56,23,10,32,0.00
2013-4-19,54,43,32,34,29,25,80,59,37,30.09,29.97,15,8,23,0.00
2013-4-20,64,52,37,41,36,30,86,57,36,30.19,30.08,10,3,0,0.00
2013-4-21,66,58,52,45,41,39,71,55,37,30.25,30.13,20,9,31,0.00
2013-4-22,70,59,46,50,44,39,76,56,40,30.18,29.90,16,9,25,0.00
2013-4-23,64,46,36,54,44,36,100,92,51,30.11,29.85,17,10,25,0.00
2013-4-24,52,41,34,37,34,28,100,76,46,30.29,30.11,10,4,22,0.00
2013-4-25,66,52,34,43,35,28,86,56,32,30.35,30.20,13,-26,0,0.00
2013-4-26,59,50,48,50,45,36,100,85,41,30.30,30.10,17,10,27,0.00
2013-4-27,54,51,48,54,51,48,100,100,100,30.13,30.01,12,3,16,0.00
2013-4-28,73,59,48,57,52,48,100,82,53,30.04,29.89,8,-15,0,0.00
2013-4-29,81,67,55,68,59,52,93,75,54,29.90,29.78,18,9,25,0.00
2013-4-30,79,71,61,64,58,52,93,65,41,29.88,29.81,18,10,32,0.00
2013-5-1,81,70,61,66,61,54,100,74,54,30.08,29.88,13,6,20,0.00
2013-5-2,63,46,32,61,44,30,100,94,87,30.27,30.06,17,10,24,0.00
2013-5-3,43,36,32,37,34,30,100,91,70,30.26,29.93,15,8,23,0.00
2013-5-4,45,38,34,37,36,32,100,92,75,30.00,29.84,9,-40,0,0.00
2013-5-5,55,46,36,52,43,34,100,90,71,30.10,29.99,8,-318,0,0.00
2013-5-6,61,52,48,54,50,48,100,95,76,30.11,30.03,9,3,0,0.00
2013-5-7,73,62,46,59,53,46,100,74,49,30.11,30.01,5,0,0,0.00
2013-5-8,75,64,57,64,57,52,100,77,53,30.11,29.92,15,4,21,0.00
2013-5-9,73,65,57,66,62,57,100,90,77,29.98,29.89,16,4,24,0.00
2013-5-10,64,59,52,61,56,-100,100,94,72,30.07,29.92,9,4,0,0.00
2013-5-11,72,59,46,63,50,39,100,76,45,30.22,30.07,15,-54,22,0.00
2013-5-12,64,53,41,52,41,34,100,65,39,30.29,30.17,8,-238,0,0.00
2013-5-13,79,64,48,63,54,45,93,71,50,30.17,30.05,14,4,22,0.00
2013-5-14,84,70,63,70,60,54,93,73,48,30.06,29.97,14,-16,23,0.00
2013-5-15,73,68,63,73,64,57,100,90,68,30.01,29.88,13,8,21,0.00
2013-5-16,68,59,61,66,42,-100,100,100,93,29.92,29.85,7,3,0,0.00
2013-5-17,81,66,57,72,60,-100,100,92,69,29.96,29.88,6,0,0,0.00
2013-5-18,82,74,64,79,72,64,100,94,83,29.95,29.81,12,6,18,0.00
2013-5-19,84,76,68,73,69,64,100,79,54,29.90,29.67,20,9,27,0.00
2013-5-20,75,67,61,73,66,61,100,97,83,29.85,29.73,12,6,22,0.00
2013-5-21,66,62,57,66,62,57,100,99,88,29.89,29.60,17,4,30,0.00
2013-5-22,72,62,54,63,59,54,100,90,68,29.97,29.81,7,1,0,0.00
2013-5-23,73,63,54,64,59,54,100,88,68,30.17,29.96,10,4,0,0.00
2013-5-24,75,64,55,66,60,55,100,86,73,30.29,30.17,13,7,21,0.00
2013-5-25,81,69,55,72,64,55,100,85,69,30.23,30.08,12,6,17,0.00
2013-5-26,81,72,64,75,70,64,100,91,78,30.13,30.00,16,7,23,0.00
2013-5-27,81,74,66,75,70,64,100,90,78,30.02,29.81,20,11,31,0.00
2013-5-28,79,74,72,72,70,66,100,88,73,29.89,29.78,17,12,29,0.00
2013-5-29,79,74,70,72,69,66,94,84,78,29.90,29.77,21,11,30,0.00
2013-5-30,79,68,61,73,66,61,100,96,83,29.84,29.75,20,10,36,0.00
2013-5-31,82,73,63,77,71,63,100,94,78,29.85,29.71,15,8,25,0.00
2013-6-1,75,67,61,70,64,-100,100,91,73,30.02,29.71,15,4,23,0.00
2013-6-2,64,60,54,61,58,54,100,94,82,30.09,30.00,9,3,0,0.00
2013-6-3,75,62,48,64,57,48,100,84,60,30.06,29.93,7,1,0,0.00
2013-6-4,75,67,61,68,64,61,100,91,78,30.01,29.92,10,5,15,0.00
2013-6-5,75,68,63,70,66,63,100,92,83,30.01,29.90,8,6,0,0.00
2013-6-6,72,65,59,64,62,57,100,89,64,29.97,29.93,8,1,0,0.00
2013-6-7,73,64,54,63,57,54,100,80,53,30.02,29.94,8,-140,0,0.00
2013-6-8,79,67,55,66,60,54,100,78,61,29.98,29.86,9,-102,0,0.00
2013-6-9,81,70,64,70,63,61,94,78,54,29.93,29.87,8,1,0,0.00
2013-6-10,88,76,64,77,69,61,100,79,62,29.95,29.88,8,-76,0,0.00
2013-6-11,90,81,73,73,70,66,83,70,52,30.02,29.94,15,7,24,0.00
2013-6-12,90,81,73,73,72,70,94,74,55,30.00,29.92,18,11,30,0.00
2013-6-13,86,77,70,73,69,64,100,78,58,30.07,29.97,9,2,0,0.00
2013-6-14,88,79,68,79,73,66,94,82,66,30.06,29.96,7,3,0,0.00
2013-6-15,88,74,68,77,71,66,100,89,70,30.05,29.97,13,5,18,0.00
2013-6-16,86,76,66,77,72,66,100,88,66,30.03,29.95,9,4,0,0.00
2013-6-17,75,69,66,70,68,64,100,95,83,30.00,29.92,9,4,0,0.00
2013-6-18,84,73,63,72,67,63,100,83,54,30.06,29.98,7,1,0,0.00
2013-6-19,82,74,63,73,68,63,100,79,58,30.08,30.00,8,2,0,0.00
2013-6-20,88,74,66,75,68,64,93,82,62,30.10,30.04,14,6,20,0.00
2013-6-22,86,82,75,75,73,72,88,75,66,30.09,29.96,13,7,21,0.00
2013-6-23,88,80,72,75,73,70,100,81,62,30.03,29.94,16,8,29,0.00
2013-6-24,90,80,72,75,72,70,94,77,55,30.07,29.97,21,9,31,0.00
2013-6-25,88,80,73,73,72,70,94,75,55,30.01,29.87,21,13,32,0.00
2013-6-26,90,83,75,79,74,70,94,76,62,29.97,29.86,18,-19,30,0.00
2013-6-27,93,84,72,81,76,72,100,80,56,30.01,29.91,7,1,0,0.00
2013-6-28,90,80,72,79,70,61,100,72,46,30.00,29.89,13,-36,17,0.00
2013-6-29,84,74,64,64,59,55,88,60,37,29.93,29.85,15,-288,28,0.00
2013-6-30,79,69,61,64,61,57,93,76,60,30.01,29.88,14,-47,20,0.00
2013-7-1,79,69,61,63,59,46,100,72,31,30.08,30.01,15,6,22,0.00
2013-7-2,81,69,55,59,55,52,93,64,39,30.12,30.05,14,5,21,0.00
2013-7-3,81,73,57,63,58,54,93,63,41,30.14,30.04,8,-10,0,0.00
2013-7-4,84,73,63,64,60,55,82,64,42,30.09,30.00,8,4,0,0.00
2013-7-5,88,76,63,64,61,57,82,62,40,30.06,29.96,12,6,18,0.00
2013-7-6,84,73,66,72,64,59,88,74,54,30.07,29.98,9,4,0,0.00
2013-7-7,90,79,72,72,68,64,88,69,45,30.08,30.01,13,7,18,0.00
2013-7-8,91,79,70,73,68,-100,94,73,52,30.13,30.06,12,6,18,0.00
2013-7-9,93,83,72,73,72,70,94,72,49,30.11,29.99,14,6,21,0.00
2013-7-10,95,83,73,73,69,-100,88,65,43,30.05,29.95,10,3,15,0.00
2013-7-11,91,82,73,77,71,63,100,72,38,30.06,29.97,13,6,18,0.00
2013-7-12,91,80,70,72,67,61,82,65,49,30.07,30.01,14,7,20,0.00
2013-7-13,90,77,66,66,61,55,68,57,45,30.09,30.00,12,5,0,0.00
2013-7-14,88,77,66,64,59,54,82,57,33,30.09,30.00,10,6,17,0.00
2013-7-15,90,77,70,72,66,57,100,71,43,30.20,30.09,13,-15,20,0.00
2013-7-16,90,77,68,73,71,68,100,84,52,30.29,30.19,12,2,0,0.00
2013-7-17,91,82,72,73,70,68,100,70,46,30.35,30.23,9,3,0,0.00
2013-7-18,93,83,72,72,69,64,88,65,38,30.25,30.07,6,-10,0,0.00
2013-7-19,93,82,70,73,70,66,94,70,41,30.08,29.95,10,2,0,0.00
2013-7-20,93,78,68,73,69,-100,100,78,46,30.02,29.87,17,4,24,0.00
2013-7-21,82,73,68,75,72,68,100,96,78,29.99,29.89,9,-36,0,0.00
2013-7-22,86,74,66,75,70,64,100,86,54,29.97,29.87,14,6,22,0.00
2013-7-23,93,83,73,79,75,70,94,76,56,29.95,29.85,16,4,23,0.00
2013-7-24,84,76,70,73,71,66,100,85,65,30.05,29.87,24,6,35,0.00
2013-7-25,82,75,66,72,68,64,93,78,58,30.13,30.05,8,2,0,0.00
2013-7-26,73,71,66,72,70,66,100,97,88,30.08,30.02,8,3,0,0.00
2013-7-27,77,69,63,66,64,61,100,84,57,30.10,30.01,10,-26,0,0.00
2013-7-28,72,66,63,68,64,61,100,91,82,30.08,30.02,8,3,0,0.00
2013-7-29,82,74,66,77,70,64,100,89,78,30.09,30.00,14,8,21,0.00
2013-7-30,82,76,70,77,74,70,100,93,78,30.07,30.01,13,4,22,0.00
2013-7-31,84,78,72,79,74,70,100,88,70,30.10,30.04,13,4,17,0.00
2013-8-1,84,76,66,72,69,66,100,81,58,30.13,30.01,8,2,0,0.00
2013-8-2,84,76,70,79,74,68,100,93,83,30.03,29.90,12,7,21,0.00
2013-8-3,88,78,68,79,74,68,100,90,66,30.12,29.93,15,5,33,0.00
2013-8-4,75,72,70,75,72,70,100,100,94,30.17,30.04,10,4,0,0.00
2013-8-5,90,78,72,81,76,70,100,92,74,30.06,29.89,12,6,17,0.00
2013-8-6,88,80,72,81,76,72,100,90,74,29.95,29.85,12,6,16,0.00
2013-8-7,81,77,73,79,75,72,100,95,83,29.98,29.85,14,5,20,0.00
2013-8-8,82,75,68,77,73,68,100,94,78,30.01,29.89,16,5,21,0.00
2013-8-9,81,74,66,75,72,66,100,94,78,30.08,29.96,14,4,18,0.00
2013-8-10,81,73,66,73,70,66,100,89,73,30.16,30.08,14,8,21,0.00
2013-8-11,86,76,68,75,72,68,100,89,70,30.13,30.05,7,2,0,0.00
2013-8-12,81,74,70,75,73,70,100,96,78,30.11,30.00,8,1,0,0.00
2013-8-13,79,72,66,75,69,-100,100,94,83,30.10,30.03,9,2,0,0.00
2013-8-14,66,65,63,64,64,63,100,95,93,30.13,30.10,6,4,0,0.00
2013-10-3,81,76,72,72,70,68,94,82,69,29.91,29.87,14,10,21,0.00
2013-10-4,82,74,70,73,70,66,100,88,65,29.95,29.88,18,10,24,0.00
2013-10-5,72,57,46,70,54,45,100,91,71,30.07,29.93,15,-12,23,0.00
2013-10-6,61,52,43,48,44,39,93,77,55,30.03,29.95,12,3,21,0.00
2013-10-7,70,55,45,54,47,43,100,77,43,30.17,30.03,7,1,0,0.00
2013-10-8,72,60,50,54,51,48,93,74,49,30.16,30.07,14,4,22,0.00
2013-10-9,73,60,50,54,51,46,93,72,43,30.14,30.06,10,4,0,0.00
2013-10-10,75,62,52,61,55,48,93,79,53,30.11,29.95,10,5,0,0.00
2013-10-11,73,66,57,68,62,55,100,90,78,29.94,29.87,21,11,30,0.00
2013-10-12,70,62,57,66,57,-100,100,89,64,30.20,29.91,16,7,30,0.00
2013-10-13,70,62,55,54,52,48,87,71,56,30.34,30.20,13,8,16,0.00
2013-10-14,63,59,57,63,53,48,100,82,71,30.27,29.96,20,9,28,0.00
2013-10-15,63,57,52,63,56,50,100,97,87,30.08,29.91,20,6,28,0.00
2013-10-16,57,50,41,48,45,41,100,84,66,30.14,30.03,9,-251,0,0.00
2013-10-17,61,51,41,48,46,41,100,83,58,30.07,29.99,8,2,0,0.00
2013-10-18,54,46,39,48,44,39,100,92,76,30.09,30.00,13,-28,17,0.00
2013-10-19,55,42,36,43,37,-100,100,86,54,30.12,30.01,10,4,17,0.00
2013-10-20,66,53,43,46,43,39,86,70,42,30.02,29.89,15,6,23,0.00
2013-10-21,55,49,43,46,42,37,93,77,54,30.12,29.96,14,3,20,0.00
2013-10-22,66,50,36,50,41,36,100,75,42,30.08,29.96,14,-33,21,0.00
2013-10-28,66,56,43,59,52,-100,100,89,68,30.16,30.02,12,4,17,0.00
2013-10-29,66,62,55,66,62,55,100,100,93,30.15,29.99,17,10,24,0.00
2013-10-30,66,65,63,66,65,63,100,100,100,30.05,29.84,20,11,31,0.00
2013-10-31,70,59,48,66,58,48,100,97,73,29.83,29.53,15,7,23,0.00
2013-11-1,63,52,43,52,46,43,100,82,55,30.01,29.76,6,2,0,0.00
2013-11-2,54,46,37,45,38,-100,100,77,54,30.21,30.01,12,3,17,0.00
2013-11-3,59,46,36,45,40,34,100,81,54,30.19,30.02,18,9,28,0.00
2013-11-11,63,54,39,54,48,37,93,80,72,30.40,30.19,17,5,30,0.00
2013-11-12,39,31,25,37,20,16,93,66,43,30.72,30.42,21,10,27,0.00
2013-11-13,48,34,21,23,18,12,79,55,31,30.64,30.27,14,6,18,0.00
2013-11-14,50,41,30,30,24,19,68,51,34,30.27,30.02,20,10,28,0.00
2013-11-15,61,50,43,50,43,32,100,78,57,30.03,29.84,16,9,23,0.00
2013-11-16,70,61,52,64,57,-100,100,88,73,29.85,29.61,30,20,41,0.00
2013-11-17,70,65,54,66,46,21,88,55,26,30.10,29.55,27,13,40,0.00
2013-11-18,59,48,37,37,32,25,86,55,32,30.26,30.06,12,4,16,0.00
2013-11-19,57,51,45,30,27,21,56,41,30,30.24,30.04,18,10,25,0.00
2013-11-20,57,52,46,39,28,16,54,39,25,30.04,29.90,22,13,32,0.00
2013-11-21,55,51,36,52,48,36,100,92,54,30.27,29.97,16,6,23,0.00
2013-11-22,36,30,28,36,29,27,100,96,86,30.49,30.27,17,12,22,0.00
2013-11-23,37,29,19,28,20,-100,92,73,53,30.62,30.48,16,11,22,0.00
2013-11-24,30,23,16,16,12,9,78,62,46,30.62,30.30,10,8,18,0.00
2013-11-25,34,32,28,30,24,16,92,74,54,30.31,30.16,8,2,0,0.00
2013-11-26,43,34,27,30,26,16,92,73,56,30.32,30.12,18,7,27,0.00
2013-11-27,36,24,18,18,12,10,79,61,37,30.38,30.25,13,3,18,0.00
2013-11-28,52,37,25,34,23,14,74,59,41,30.41,30.22,15,-29,21,0.00
2013-11-29,52,40,28,34,28,25,86,64,37,30.46,30.27,13,5,20,0.00
2013-11-30,57,46,36,46,38,-100,100,75,66,30.29,30.11,21,9,30,0.00
2013-12-1,52,47,39,52,47,39,100,100,100,30.12,29.89,5,0,0,0.00
2013-12-2,63,49,37,54,46,37,100,92,63,29.90,29.68,12,2,16,0.00
2013-12-3,66,53,41,55,48,41,100,87,55,29.66,29.56,13,5,18,0.00
2013-12-4,54,44,28,48,43,27,100,94,81,29.95,29.54,13,8,17,0.00
2013-12-5,28,22,19,25,18,12,92,82,67,30.23,29.97,13,9,18,0.00
2013-12-6,19,17,12,16,11,1,92,79,61,30.49,30.19,18,12,22,0.00
2013-12-7,19,12,5,12,3,-100,78,67,56,30.56,30.26,16,10,22,0.00
2013-12-8,28,24,19,28,21,12,100,91,67,30.26,29.96,12,7,0,0.00
2013-12-9,27,20,16,25,17,12,92,86,67,30.30,30.12,12,6,16,0.00
2013-12-12,39,27,14,27,18,9,80,68,60,30.54,30.23,13,7,20,0.00
2013-12-13,36,34,30,36,32,25,100,91,74,30.23,29.82,20,8,30,0.00
2013-12-14,36,30,23,36,28,-100,100,95,85,30.20,29.82,16,7,22,0.00
2013-12-15,52,34,19,37,29,18,100,83,57,30.20,30.08,14,7,20,0.00
2013-12-16,61,45,37,39,35,34,86,69,41,30.12,30.04,13,6,16,0.00
2013-12-17,54,43,30,37,31,27,92,66,46,30.28,30.11,16,4,22,0.00
2013-12-18,61,51,34,43,37,28,80,60,44,30.25,29.92,24,14,33,0.00
2013-12-19,61,55,52,55,51,41,93,84,62,29.93,29.71,24,17,46,0.00
2013-12-20,63,40,28,61,39,28,100,98,87,29.90,29.70,21,8,29,0.00
2013-12-21,32,31,28,32,31,28,100,100,100,29.81,29.49,0,0,0,0.00
2013-12-22,32,28,25,32,27,21,100,96,85,30.30,29.69,0,0,0,0.00
2013-12-23,25,21,16,21,18,12,92,87,79,30.53,30.31,0,0,0,0.00
2013-12-24,39,25,12,32,21,10,92,83,69,30.50,30.19,16,3,20,0.00
2013-12-25,39,32,28,34,30,27,100,88,80,30.35,30.24,7,1,0,0.00
2013-12-26,48,34,23,37,28,21,100,80,52,30.35,30.26,16,4,21,0.00
2013-12-27,55,40,30,36,31,27,93,71,47,30.37,30.27,13,7,18,0.00
2013-12-28,54,41,32,39,31,-100,86,71,46,30.27,29.92,12,6,18,0.00
2013-12-29,43,28,19,37,22,9,92,79,67,30.24,29.92,15,8,23,0.00
2013-12-30,36,22,10,19,13,3,79,66,51,30.29,30.18,9,4,0,0.00
2013-12-31,52,36,21,30,23,16,85,61,34,30.32,30.13,18,8,24,0.00
2014-1-1,54,39,19,36,27,16,92,63,40,30.13,29.88,18,8,22,0.00
2014-1-2,21,13,7,14,6,1,85,73,57,30.41,30.14,14,5,22,0.00